GW1942 Weather Reports


time (UTC)temp
C
wind
direction
speed
KPH
gust
KPH
rain 1hr
cm
rain 24hr
cm
rain mn
cm
humidity
%
barometer
mb
20260902101528 10 162 0.0 0.0 0.00 0.00 0.00 74 1005.8
20260902100016 10 162 0.0 3.2 0.00 0.00 0.00 72 1005.7
20260902094514 10 162 0.0 1.6 0.00 0.00 0.00 74 1005.7
20260902093010 11 162 0.0 3.2 0.00 0.00 0.00 71 1005.9
20260902091507 12 162 1.6 3.2 0.00 0.00 0.00 68 1005.9
20260902090007 12 162 0.0 1.6 0.00 0.00 0.00 68 1006.1
20260902084505 12 162 0.0 1.6 0.00 0.00 0.00 69 1006.2
20260902083003 12 162 0.0 1.6 0.00 0.00 0.00 68 1005.9
20260902081615 12 162 0.0 1.6 0.00 0.00 0.00 68 1005.8
20260902080058 12 162 1.6 3.2 0.00 0.00 0.00 66 1006.1
20260902074557 13 162 0.0 3.2 0.00 0.00 0.00 63 1006.3
20260902073052 13 162 0.0 1.6 0.00 0.00 0.00 63 1006.4
20260902071601 13 162 0.0 3.2 0.00 0.00 0.00 62 1006.5
20260902070050 15 162 3.2 8.0 0.00 0.00 0.00 57 1006.6
20260902064555 15 162 1.6 6.4 0.00 0.00 0.00 58 1006.5
20260902063046 16 162 0.0 1.6 0.00 0.00 0.00 56 1006.6
20260902061548 16 161 0.0 3.2 0.00 0.00 0.00 53 1006.6
20260902060039 16 162 1.6 3.2 0.00 0.00 0.00 54 1006.6
20260902054540 18 162 0.0 9.7 0.00 0.00 0.00 47 1006.5
20260902053038 18 162 1.6 6.4 0.00 0.00 0.00 47 1006.5
20260902051539 18 162 0.0 1.6 0.00 0.00 0.00 50 1006.6
20260902050042 20 162 0.0 0.0 0.00 0.00 0.00 46 1006.4
20260902044546 20 162 0.0 1.6 0.00 0.00 0.00 45 1006.2
20260902043036 21 162 0.0 4.8 0.00 0.00 0.00 43 1006.2
20260902041534 21 162 1.6 4.8 0.00 0.00 0.00 41 1006.3
20260902040034 22 162 0.0 4.8 0.00 0.00 0.00 40 1006.3
20260902034538 22 162 1.6 9.7 0.00 0.00 0.00 40 1006.4
20260902033034 22 162 3.2 9.7 0.00 0.00 0.00 39 1006.3
20260902031533 21 162 1.6 6.4 0.00 0.00 0.00 42 1006.5
20260902030032 20 162 1.6 4.8 0.00 0.00 0.00 47 1006.3
20260902024532 21 162 0.0 4.8 0.00 0.00 0.00 42 1006.4
20260902023032 22 161 1.6 4.8 0.00 0.00 0.00 41 1006.3
20260902021545 22 162 3.2 6.4 0.00 0.00 0.00 41 1006.4
20260902020030 23 162 6.4 16.1 0.00 0.00 0.00 39 1006.2
20260902014538 24 162 4.8 11.3 0.00 0.00 0.00 33 1006.6
20260902013030 25 162 4.8 9.7 0.00 0.00 0.00 32 1006.3
20260902011529 25 162 8.0 14.5 0.00 0.00 0.00 30 1006.2
20260902010026 26 162 8.0 16.1 0.00 0.00 0.00 29 1005.7
20260902004528 26 161 11.3 20.9 0.00 0.00 0.00 28 1005.5
20260902003030 27 162 4.8 11.3 0.00 0.00 0.00 27 1005.0
20260902001525 27 161 6.4 17.7 0.00 0.00 0.00 26 1005.0
20260902000025 27 162 8.0 16.1 0.00 0.00 0.00 26 1005.0
20260901234524 28 162 8.0 14.5 0.00 0.00 0.00 25 1004.8
20260901233024 30 161 0.0 9.7 0.00 0.00 0.00 24 1004.4
20260901231523 30 161 1.6 4.8 0.00 0.00 0.00 22 1004.2
20260901230022 30 161 0.0 8.0 0.00 0.00 0.00 23 1004.0
20260901224523 30 162 1.6 4.8 0.00 0.00 0.00 22 1004.2
20260901223024 30 161 0.0 3.2 0.00 0.00 0.00 22 1004.7
20260901221515 30 161 3.2 8.0 0.00 0.00 0.00 23 1004.9
20260901220022 28 161 1.6 6.4 0.00 0.00 0.00 25 1005.2
20260901214510 28 162 1.6 4.8 0.00 0.00 0.00 25 1005.5
20260901213008 28 161 0.0 6.4 0.00 0.00 0.00 25 1005.6
20260901211506 28 161 1.6 8.0 0.00 0.00 0.00 25 1005.7
20260901210005 28 161 4.8 9.7 0.00 0.00 0.00 26 1005.8
20260901204501 28 162 3.2 9.7 0.00 0.00 0.00 26 1006.0
20260901203118 27 161 0.0 6.4 0.00 0.00 0.00 27 1006.3
20260901201555 27 161 3.2 6.4 0.00 0.00 0.00 29 1006.5
20260901200051 26 162 1.6 4.8 0.00 0.00 0.00 30 1006.8
20260901194547 26 162 1.6 6.4 0.00 0.00 0.00 31 1007.1
20260901193043 25 161 0.0 11.3 0.00 0.00 0.00 32 1007.6
20260901191541 23 161 3.2 8.0 0.00 0.00 0.00 34 1007.9
20260901190037 23 161 3.2 8.0 0.00 0.00 0.00 35 1008.2
20260901184542 22 162 3.2 8.0 0.00 0.00 0.00 37 1008.5
20260901183034 22 161 3.2 11.3 0.00 0.00 0.00 36 1008.7
20260901181532 21 161 1.6 6.4 0.00 0.00 0.00 38 1009.1
20260901180024 21 161 1.6 4.8 0.00 0.00 0.00 40 1009.3
20260901174521 21 161 0.0 4.8 0.00 0.00 0.00 40 1009.7
20260901173018 20 161 1.6 6.4 0.00 0.00 0.00 42 1010.0
20260901171513 18 161 0.0 3.2 0.00 0.00 0.00 45 1010.4
20260901170010 17 161 0.0 3.2 0.00 0.00 0.00 45 1010.7
20260901164508 17 161 0.0 3.2 0.00 0.00 0.00 46 1010.8
20260901163004 16 161 0.0 3.2 0.00 0.00 0.00 48 1011.0
20260901161503 16 161 0.0 1.6 0.00 0.00 0.00 48 1011.0
20260901160059 15 161 0.0 1.6 0.00 0.00 0.00 52 1011.1
20260901154555 14 161 0.0 3.2 0.00 0.00 0.00 54 1011.2
20260901153056 13 161 0.0 0.0 0.00 0.00 0.00 56 1011.3
20260901151549 12 162 0.0 0.0 0.00 0.00 0.00 60 1011.5
20260901150049 12 162 0.0 0.0 0.00 0.00 0.00 62 1011.6
20260901144542 10 161 0.0 1.6 0.00 0.00 0.00 67 1011.6
20260901143042 9 162 0.0 0.0 0.00 0.00 0.00 70 1011.7
20260901141541 8 161 0.0 0.0 0.00 0.00 0.00 73 1011.7
20260901140039 6 161 0.0 0.0 0.00 0.00 0.00 78 1011.7
20260901134539 5 161 0.0 0.0 0.00 0.00 0.00 80 1011.8
20260901133037 3 161 0.0 0.0 0.00 0.00 0.00 83 1011.6
20260901131537 4 161 0.0 0.0 0.00 0.00 0.00 80 1011.5
20260901130036 4 161 0.0 0.0 0.00 0.00 0.00 82 1011.5
20260901124532 4 161 0.0 0.0 0.00 0.00 0.00 80 1011.4
20260901123034 5 161 0.0 0.0 0.00 0.00 0.00 79 1011.4
20260901121527 5 162 0.0 0.0 0.00 0.00 0.00 79 1011.2
20260901120025 5 161 0.0 0.0 0.00 0.00 0.00 78 1011.1
20260901114524 5 161 0.0 0.0 0.00 0.00 0.00 78 1011.2
20260901113024 5 161 0.0 0.0 0.00 0.00 0.00 79 1011.2
20260901111522 5 162 0.0 0.0 0.00 0.00 0.00 77 1011.2
20260901110020 5 161 0.0 0.0 0.00 0.00 0.00 76 1011.1
20260901104518 6 161 0.0 0.0 0.00 0.00 0.00 77 1010.9
20260901103016 5 161 0.0 0.0 0.00 0.00 0.00 76 1010.9